Oxford, MS

8:12 AM CDT on October 23, 2019 (GMT -0500)
University-Oxford

Weather History for KUOX - September, 2019

Change the Weather History Date:

Saturday, September 21, 2019

  Actual Average Record
Temperature  
Mean Temperature 76 °F -  
Max Temperature 89 °F 83 °F 97 °F (1955)
Min Temperature 64 °F 59 °F 40 °F (1991)
Cooling Degree Days 12    
Growing Degree Days 26 (Base 50)    
Moisture  
Dew Point 58 °F    
Average Humidity 58    
Maximum Humidity 83    
Minimum Humidity 31    
Precipitation  
Precipitation 0.00 in - - ()
Sea Level Pressure  
Sea Level Pressure 30.19 in    
Wind  
Wind Speed 6 mph ()    
Max Wind Speed 12 mph    
Max Gust Speed 20 mph    
Visibility 9.8 miles    
Events      
Averages and records for this station are not official NWS values.
T = Trace of Precipitation, MM = Missing Value Source: Averaged Metar Reports

Daily Weather History Graph

Daily Weather History Graph

Search for Another Location

Airport or City:

Astronomy

Sep. 21, 2019 Rise Set
Actual Time 6:45 AM CDT 6:56 PM CDT
Civil Twilight 6:20 AM CDT 7:21 PM CDT
Nautical Twilight 5:50 AM CDT 7:50 PM CDT
Astronomical Twilight 5:21 AM CDT 8:20 PM CDT
Moon 11:50 PM CDT (9/21) 1:35 PM CDT (9/21)
Length of Visible Light 13h 01m
Length of Day
12h 11m
Waning Gibbous, 54% of the Moon is Illuminated
Sep 21
Waning Gibbous
Sep 21
Last Quarter
Sep 28
New
Oct 5
First Quarter
Oct 13
Full

Hourly Weather History & Observations

Time (CDT) Temp. Heat Index Dew Point Humidity Pressure Visibility Wind Dir Wind Speed Gust Speed Precip Events Conditions
12:15 AM 69.8 °F - 62.6 °F 78% 30.19 in 10.0 mi SE 6.9 mph - N/A   Clear
12:35 AM 69.8 °F - 62.6 °F 78% 30.19 in 10.0 mi SSE 4.6 mph - N/A   Clear
12:55 AM 69.8 °F - 62.6 °F 78% 30.19 in 10.0 mi SE 6.9 mph - N/A   Clear
1:15 AM 69.8 °F - 62.6 °F 78% 30.19 in 10.0 mi SSE 5.8 mph - N/A   Clear
1:55 AM 69.8 °F - 60.8 °F 73% 30.18 in 10.0 mi SE 5.8 mph - N/A   Clear
2:15 AM 69.8 °F - 60.8 °F 73% 30.18 in 10.0 mi SE 8.1 mph - N/A   Clear
2:55 AM 68.0 °F - 60.8 °F 78% 30.18 in 10.0 mi SSE 5.8 mph - N/A   Clear
3:15 AM 68.0 °F - 60.8 °F 78% 30.19 in 10.0 mi SE 5.8 mph - N/A   Clear
3:35 AM 66.2 °F - 59.0 °F 78% 30.19 in 10.0 mi SE 5.8 mph - N/A   Clear
3:55 AM 66.2 °F - 59.0 °F 78% 30.19 in 10.0 mi SE 5.8 mph - N/A   Clear
4:15 AM 66.2 °F - 59.0 °F 78% 30.19 in 10.0 mi SE 4.6 mph - N/A   Clear
4:35 AM 66.2 °F - 59.0 °F 78% 30.19 in 10.0 mi SE 6.9 mph - N/A   Clear
4:55 AM 66.2 °F - 59.0 °F 78% 30.20 in 10.0 mi SE 5.8 mph - N/A   Clear
5:15 AM 64.4 °F - 59.0 °F 83% 30.21 in 10.0 mi SE 5.8 mph - N/A   Clear
5:35 AM 64.4 °F - 59.0 °F 83% 30.21 in 10.0 mi SE 6.9 mph - N/A   Clear
5:55 AM 64.4 °F - 59.0 °F 83% 30.22 in 10.0 mi SE 5.8 mph - N/A   Clear
6:15 AM 64.4 °F - 57.2 °F 77% 30.22 in 10.0 mi SE 5.8 mph - N/A   Clear
6:35 AM 64.4 °F - 57.2 °F 77% 30.22 in 10.0 mi ESE 4.6 mph - N/A   Clear
6:55 AM 64.4 °F - 57.2 °F 77% 30.23 in 10.0 mi SE 5.8 mph - N/A   Clear
7:15 AM 64.4 °F - 57.2 °F 77% 30.24 in 10.0 mi SE 5.8 mph - N/A   Clear
7:35 AM 66.2 °F - 57.2 °F 73% 30.24 in 10.0 mi Variable 4.6 mph - N/A   Clear
7:55 AM 68.0 °F - 57.2 °F 68% 30.25 in 10.0 mi SE 8.1 mph - N/A   Clear
8:15 AM 69.8 °F - 57.2 °F 64% 30.25 in 9.0 mi SSE 9.2 mph 16.1 mph N/A   Clear
8:35 AM 71.6 °F - 57.2 °F 60% 30.26 in 10.0 mi SE 9.2 mph 16.1 mph N/A   Clear
8:55 AM 73.4 °F - 57.2 °F 57% 30.26 in 9.0 mi SE 8.1 mph 15.0 mph N/A   Clear
9:15 AM 73.4 °F - 57.2 °F 57% 30.26 in 10.0 mi SE 9.2 mph - N/A   Clear
9:35 AM 75.2 °F - 59.0 °F 57% 30.27 in 10.0 mi SSE 9.2 mph 15.0 mph N/A   Clear
9:55 AM 75.2 °F - 59.0 °F 57% 30.27 in 10.0 mi SSE 6.9 mph - N/A   Clear
10:15 AM 77.0 °F - 59.0 °F 54% 30.27 in 9.0 mi SE 6.9 mph - N/A   Clear
10:35 AM 78.8 °F - 60.8 °F 54% 30.26 in 9.0 mi Variable 6.9 mph - N/A   Clear
10:55 AM 80.6 °F 81.5 °F 60.8 °F 51% 30.26 in 10.0 mi SSE 9.2 mph - N/A   Clear
11:15 AM 82.4 °F 82.9 °F 60.8 °F 48% 30.25 in 10.0 mi North - - N/A   Clear
11:35 AM 84.2 °F 84.4 °F 60.8 °F 45% 30.24 in 9.0 mi South 10.4 mph 17.3 mph N/A   Clear
11:55 AM 84.2 °F 84.4 °F 60.8 °F 45% 30.23 in 10.0 mi South 10.4 mph 18.4 mph N/A   Clear
12:15 PM 86.0 °F 86.1 °F 60.8 °F 43% 30.23 in 9.0 mi South 9.2 mph - N/A   Partly Cloudy
12:35 PM 86.0 °F 85.4 °F 59.0 °F 40% 30.22 in 10.0 mi SSE 8.1 mph 16.1 mph N/A   Scattered Clouds
12:55 PM 86.0 °F 84.9 °F 57.2 °F 37% 30.22 in 9.0 mi SSW 9.2 mph - N/A   Scattered Clouds
1:15 PM 86.0 °F 84.9 °F 57.2 °F 37% 30.21 in 10.0 mi Calm Calm 11.5 mph N/A   Partly Cloudy
1:55 PM 86.0 °F 84.9 °F 57.2 °F 37% 30.19 in 10.0 mi Variable 6.9 mph - N/A   Clear
2:15 PM 87.8 °F 86.5 °F 57.2 °F 35% 30.18 in 10.0 mi SSE 9.2 mph - N/A   Scattered Clouds
2:35 PM 86.0 °F 84.9 °F 57.2 °F 37% 30.18 in 10.0 mi SE 6.9 mph - N/A   Scattered Clouds
2:55 PM 86.0 °F 84.9 °F 57.2 °F 37% 30.17 in 10.0 mi Variable 6.9 mph - N/A   Scattered Clouds
3:15 PM 86.0 °F 84.9 °F 57.2 °F 37% 30.16 in 10.0 mi SSE 11.5 mph 19.6 mph N/A   Scattered Clouds
3:35 PM 89.6 °F 87.7 °F 55.4 °F 31% 30.15 in 9.0 mi SSE 8.1 mph - N/A   Scattered Clouds
3:55 PM 87.8 °F 85.7 °F 53.6 °F 31% 30.15 in 10.0 mi SE 9.2 mph - N/A   Partly Cloudy
4:15 PM 87.8 °F 86.1 °F 55.4 °F 33% 30.15 in 9.0 mi Variable 6.9 mph 18.4 mph N/A   Partly Cloudy
4:35 PM 86.0 °F 84.5 °F 55.4 °F 35% 30.14 in 10.0 mi Variable 5.8 mph 13.8 mph N/A   Clear
4:55 PM 87.8 °F 86.1 °F 55.4 °F 33% 30.14 in 9.0 mi Variable 4.6 mph - N/A   Scattered Clouds
5:15 PM 86.0 °F 84.5 °F 55.4 °F 35% 30.14 in 10.0 mi SE 8.1 mph - N/A   Scattered Clouds
5:35 PM 86.0 °F 84.5 °F 55.4 °F 35% 30.14 in 10.0 mi SE 6.9 mph - N/A   Mostly Cloudy
5:55 PM 84.2 °F 83.0 °F 55.4 °F 37% 30.14 in 10.0 mi SSE 6.9 mph - N/A   Scattered Clouds
6:15 PM 84.2 °F 83.0 °F 55.4 °F 37% 30.14 in 9.0 mi South 8.1 mph - N/A   Clear
6:35 PM 82.4 °F 81.7 °F 55.4 °F 39% 30.14 in 10.0 mi SSE 6.9 mph - N/A   Clear
6:55 PM 80.6 °F 80.8 °F 57.2 °F 45% 30.14 in 10.0 mi SSE 4.6 mph - N/A   Clear
7:15 PM 77.0 °F - 57.2 °F 50% 30.14 in 10.0 mi SE 5.8 mph - N/A   Clear
7:35 PM 77.0 °F - 59.0 °F 54% 30.14 in 10.0 mi SE 4.6 mph - N/A   Clear
7:55 PM 75.2 °F - 59.0 °F 57% 30.14 in 10.0 mi SE 4.6 mph - N/A   Clear
8:15 PM 73.4 °F - 59.0 °F 61% 30.15 in 10.0 mi SE 4.6 mph - N/A   Clear
8:35 PM 73.4 °F - 59.0 °F 61% 30.16 in 10.0 mi SE 4.6 mph - N/A   Clear
8:55 PM 71.6 °F - 60.8 °F 69% 30.16 in 10.0 mi ESE 4.6 mph - N/A   Clear
9:15 PM 71.6 °F - 59.0 °F 64% 30.16 in 10.0 mi ESE 5.8 mph - N/A   Clear
9:35 PM 71.6 °F - 59.0 °F 64% 30.16 in 10.0 mi SE 6.9 mph - N/A   Clear
9:55 PM 71.6 °F - 59.0 °F 64% 30.16 in 10.0 mi ESE 3.5 mph - N/A   Clear
10:15 PM 71.6 °F - 59.0 °F 64% 30.16 in 10.0 mi SE 5.8 mph - N/A   Clear
10:35 PM 71.6 °F - 59.0 °F 64% 30.16 in 10.0 mi Calm Calm - N/A   Clear
10:55 PM 69.8 °F - 59.0 °F 68% 30.16 in 10.0 mi SE 4.6 mph - N/A   Clear
11:15 PM 69.8 °F - 59.0 °F 68% 30.16 in 10.0 mi SE 4.6 mph - N/A   Clear
11:35 PM 68.0 °F - 59.0 °F 73% 30.15 in 10.0 mi SE 5.8 mph - N/A   Clear
11:55 PM 68.0 °F - 59.0 °F 73% 30.15 in 10.0 mi SE 4.6 mph - N/A   Clear